This demonstration page uses our WeatherBlox Daily Observations layout. Learn more.

40.92945, -100.16068

Hourly Observations for December 4, 2016

Temp ( °F °C ) Dew Point ( °F °C ) Humidity (%) Winds ( mph kmh ) Pressure ( in mb ) Visibility ( mi km ) Precip ( " mm )
12:15 am 00:15 Cloudy 33 0.7 32 0 95 95 W 5 7 30.09 1019 7 11.26538 N/A
12:35 am 00:35 Cloudy with Mist and Fog 32 0 30 -0.9 94 94 SW 3 6 30.12 1020 5 8.0467 N/A
12:55 am 00:55 Cloudy with Mist and Fog 31 -0.4 30 -1.2 94 94 Calm 30.12 1020 4 6.43736 N/A
1:15 am 01:15 Cloudy with Mist and Fog 32 -0.2 30 -1 94 94 Calm 30.12 1020 4 6.43736 N/A
1:35 am 01:35 Mostly Cloudy with Mist and Fog 30 -0.9 29 -1.6 95 95 W 3 6 30.09 1019 4 6.43736 N/A
1:55 am 01:55 Cloudy with Mist and Fog 29 -1.5 28 -2.2 95 95 W 5 7 30.12 1020 3 4.82802 N/A
2:15 am 02:15 Mostly Cloudy with Freezing Fog 28 -2.5 26 -3.2 95 95 WNW 3 6 30.15 1021 0.5 0.80467 N/A
2:35 am 02:35 Cloudy with Freezing Fog 26 -3.3 25 -4 95 95 WNW 9 15 30.15 1021 0.25 0.402335 N/A
2:55 am 02:55 Mostly Cloudy with Mist and Fog 27 -2.6 26 -3.3 95 95 WNW 6 9 30.15 1021 1 1.60934 N/A
3:15 am 03:15 Cloudy with Freezing Fog 26 -3.3 25 -4 95 95 WNW 5 7 30.15 1021 0.25 0.402335 N/A
3:35 am 03:35 Cloudy with Freezing Fog 26 -3.1 25 -3.8 95 95 W 3 6 30.15 1021 0.25 0.402335 N/A
3:55 am 03:55 Cloudy with Mist and Fog 26 -3.5 25 -4.1 96 96 WNW 5 7 30.12 1020 1 1.60934 N/A
4:15 am 04:15 Partly Cloudy 25 -3.9 24 -4.7 94 94 WNW 8 13 30.12 1020 7 11.26538 N/A
4:35 am 04:35 Clear 25 -3.9 23 -4.9 93 93 WNW 7 11 30.12 1020 10 16.0934 N/A
4:55 am 04:55 Clear 25 -4 23 -5 93 93 WNW 8 13 30.12 1020 10 16.0934 N/A
5:15 am 05:15 Clear 25 -4 23 -5 93 93 WNW 9 15 30.12 1020 10 16.0934 N/A
5:35 am 05:35 Clear 24 -4.5 22 -5.7 91 91 WNW 7 11 30.12 1020 10 16.0934 N/A
5:55 am 05:55 Partly Cloudy 24 -4.3 21 -5.9 89 89 WNW 8 13 30.12 1020 10 16.0934 N/A
6:15 am 06:15 Partly Cloudy 24 -4.5 20 -6.4 87 87 WNW 8 13 30.12 1020 10 16.0934 N/A
6:35 am 06:35 Clear 24 -4.5 20 -6.6 85 85 W 9 15 30.12 1020 10 16.0934 N/A
6:55 am 06:55 Clear 24 -4.7 20 -6.7 86 86 WNW 9 15 30.12 1020 10 16.0934 N/A
7:15 am 07:15 Clear 24 -4.7 20 -6.7 86 86 WNW 9 15 30.12 1020 10 16.0934 N/A
7:35 am 07:35 Clear 23 -4.8 20 -6.8 86 86 WNW 10 17 30.12 1020 10 16.0934 N/A
7:55 am 07:55 Sunny 23 -4.8 20 -6.8 86 86 WNW 8 13 30.15 1021 10 16.0934 N/A
8:15 am 08:15 Sunny 24 -4.5 20 -6.5 86 86 W 8 13 30.15 1021 10 16.0934 N/A
8:35 am 08:35 Sunny 25 -3.9 21 -6 86 86 WNW 8 13 30.15 1021 10 16.0934 N/A
8:55 am 08:55 Sunny 27 -3 23 -5.2 85 85 WNW 7 11 30.15 1021 10 16.0934 N/A
9:15 am 09:15 Sunny 29 -1.8 24 -4.4 83 83 WNW 10 17 30.12 1020 10 16.0934 N/A
9:35 am 09:35 Sunny 31 -0.5 25 -3.7 79 79 WNW 10 17 30.12 1020 10 16.0934 N/A
9:55 am 09:55 Sunny 33 0.3 26 -3.6 75 75 WNW 14 22 30.12 1020 10 16.0934 N/A
10:15 am 10:15 Sunny 35 1.6 25 -3.9 67 67 WNW 14 22 30.09 1019 10 16.0934 N/A
10:35 am 10:35 Sunny 37 2.5 25 -4 63 63 WNW 15 24 30.09 1019 10 16.0934 N/A
10:55 am 10:55 Sunny 38 3.5 25 -3.8 59 59 WNW 12 19 30.09 1019 10 16.0934 N/A
11:15 am 11:15 Sunny 40 4.6 25 -4 54 54 WNW 12 19 30.06 1018 10 16.0934 N/A
11:35 am 11:35 Sunny 43 6.3 24 -4.6 46 46 WNW 10 17 30.03 1017 10 16.0934 N/A
11:55 am 11:55 Sunny 46 7.5 23 -4.9 41 41 W 8 13 30 1016 10 16.0934 N/A
12:15 pm 12:15 Sunny 47 8.1 24 -4.7 40 40 WNW 7 11 30 1016 10 16.0934 N/A
12:35 pm 12:35 Sunny 47 8.3 23 -4.9 39 39 W 8 13 29.97 1015 10 16.0934 N/A
12:55 pm 12:55 Sunny 48 9.1 22 -5.3 36 36 WNW 9 15 29.97 1015 10 16.0934 N/A
1:15 pm 13:15 Sunny 49 9.5 22 -5.8 34 34 W 7 11 29.91 1013 10 16.0934 N/A
1:35 pm 13:35 Sunny 50 9.8 19 -7.1 30 30 W 6 9 29.91 1013 10 16.0934 N/A
1:55 pm 13:55 Sunny 50 10.2 19 -7 29 29 W 9 15 29.91 1013 10 16.0934 N/A
2:15 pm 14:15 Sunny 51 10.4 20 -6.9 29 29 W 6 9 29.88 1012 10 16.0934 N/A
2:35 pm 14:35 Sunny 51 10.5 19 -7.2 28 28 WNW 5 7 29.88 1012 10 16.0934 N/A
2:55 pm 14:55 Sunny 51 10.6 17 -8.5 25 25 W 12 19 29.88 1012 10 16.0934 N/A
3:15 pm 15:15 Sunny 51 10.5 16 -8.7 25 25 W 13 20 29.88 1012 10 16.0934 N/A
3:35 pm 15:35 Sunny 51 10.4 17 -8.6 26 26 W 13 20 29.88 1012 10 16.0934 N/A
3:55 pm 15:55 Sunny 50 10.1 17 -8.3 27 27 W 9 15 29.88 1012 10 16.0934 N/A
4:15 pm 16:15 Sunny 49 9.5 18 -7.9 29 29 W 8 13 29.85 1011 10 16.0934 N/A
4:35 pm 16:35 Sunny 47 8.4 19 -7.5 32 32 W 6 9 29.88 1012 10 16.0934 N/A
4:55 pm 16:55 Sunny 44 6.7 18 -7.6 36 36 W 5 7 29.88 1012 10 16.0934 N/A
5:15 pm 17:15 Clear 43 5.9 17 -8.5 35 35 W 3 6 29.88 1012 10 16.0934 N/A
5:35 pm 17:35 Clear 43 5.9 16 -8.9 34 34 SW 3 6 29.88 1012 10 16.0934 N/A
5:55 pm 17:55 Clear 37 2.6 18 -7.6 47 47 SSW 5 7 29.91 1013 10 16.0934 N/A
6:15 pm 18:15 Clear 35 1.7 19 -7.2 52 52 S 6 9 29.94 1014 10 16.0934 N/A
6:35 pm 18:35 Clear 34 1.1 19 -7 55 55 SSW 8 13 29.94 1014 10 16.0934 N/A
6:55 pm 18:55 Clear 33 0.6 19 -7 57 57 S 7 11 29.94 1014 10 16.0934 N/A
7:15 pm 19:15 Clear 32 0 19 -7 60 60 S 8 13 29.94 1014 10 16.0934 N/A
7:35 pm 19:35 Clear 32 -0.2 20 -6.5 63 63 S 9 15 29.91 1013 10 16.0934 N/A
7:55 pm 19:55 Clear 32 0 20 -6.9 60 60 S 9 15 29.91 1013 10 16.0934 N/A
8:15 pm 20:15 Clear 33 0.3 19 -7.1 58 58 S 9 15 29.91 1013 10 16.0934 N/A
8:35 pm 20:35 Clear 33 0.5 19 -7.1 57 57 S 9 15 29.91 1013 10 16.0934 N/A
8:55 pm 20:55 Clear 36 2.4 19 -7.3 49 49 S 10 17 29.85 1011 10 16.0934 N/A
9:15 pm 21:15 Clear 39 3.9 18 -7.7 43 43 S 12 19 29.85 1011 10 16.0934 N/A
9:35 pm 21:35 Clear 40 4.2 18 -7.7 42 42 S 14 22 29.85 1011 10 16.0934 N/A
9:55 pm 21:55 Clear 40 4.7 18 -7.9 40 40 S 17 28 29.85 1011 10 16.0934 N/A
10:35 pm 22:35 Clear 40 4.2 17 -8.1 41 41 S 13 20 29.83 1010 10 16.0934 N/A
10:55 pm 22:55 Clear 40 4.5 17 -8.1 40 40 SSW 16 26 29.8 1009 10 16.0934 N/A
11:15 pm 23:15 Clear 40 4.7 17 -8.2 39 39 SSW 20 31 29.8 1009 10 16.0934 N/A
11:35 pm 23:35 Clear 40 4.5 17 -8.2 40 40 SSW 22 35 29.77 1008 10 16.0934 N/A
11:55 pm 23:55 Clear 39 3.9 17 -8.1 42 42 SSW 17 28 29.8 1009 10 16.0934 N/A

Powered by AerisWeather